Aberdeen / Amory, MS

2:28 AM CDT on August 24, 2017 (GMT -0500)
Aberdeen / Amory

Weather History for KM40 - January, 2013

Change the Weather History Date:

Saturday, January 5, 2013

  Actual Average (KCBM) Record (KCBM)
Temperature  
Mean Temperature 37 °F -  
Max Temperature 46 °F 52 °F 71 °F (2005)
Min Temperature 28 °F 35 °F 10 °F (1999)
Degree Days  
Heating Degree Days 28    
Moisture  
Dew Point 31 °F    
Average Humidity 81    
Maximum Humidity 93    
Minimum Humidity 66    
Precipitation  
Precipitation 0.02 in - - ()
Sea Level Pressure  
Sea Level Pressure 30.37 in    
Wind  
Wind Speed 1 mph (South)    
Max Wind Speed 7 mph    
Max Gust Speed -    
Visibility 7 miles    
Events Rain    
Averages and records for this station are not official NWS values.
T = Trace of Precipitation, MM = Missing Value Source: NWS Daily Summary

Daily Weather History Graph

Daily Weather History Graph

Search for Another Location

Airport or City:

Trip Planner

Search our weather history database for the weather conditions in past years. The results will help you decide how hot, cold, wet, or windy it might be!

Date:

Astronomy

Jan. 05, 2013 Rise Set
Actual Time 6:59 AM CST 4:59 PM CST
Civil Twilight 6:32 AM CST 5:27 PM CST
Nautical Twilight 6:01 AM CST 5:58 PM CST
Astronomical Twilight 5:30 AM CST 6:28 PM CST
Moon 12:15 AM CST (1/5) 11:41 AM CST (1/5)
Length of Visible Light 10h 54m
Length of Day
9h 59m
Last Quarter, 44% of the Moon is Illuminated
Jan 5
Last Quarter
Jan 11
New
Jan 18
First Quarter
Jan 26
Full
Feb 3
Last Quarter

Hourly Weather History & Observations

Time (CST) Temp. Windchill Dew Point Humidity Pressure Visibility Wind Dir Wind Speed Gust Speed Precip Events Conditions
12:15 AM 30.2 °F - 26.6 °F 86% 30.40 in 9.0 mi Calm Calm - N/A   Clear
12:55 AM 28.4 °F - 26.6 °F 93% 30.40 in 9.0 mi Calm Calm - N/A   Clear
1:15 AM 28.4 °F - 26.6 °F 93% 30.41 in 10.0 mi Calm Calm - N/A   Clear
1:35 AM 30.2 °F - 24.8 °F 80% 30.40 in 7.0 mi Calm Calm - N/A   Clear
1:55 AM 28.4 °F - 24.8 °F 86% 30.40 in 9.0 mi Calm Calm - N/A   Clear
2:15 AM 28.4 °F - 23.0 °F 80% 30.40 in 7.0 mi Calm Calm - N/A   Clear
2:35 AM 28.4 °F - 23.0 °F 80% 30.40 in 8.0 mi Calm Calm - N/A   Clear
2:55 AM 28.4 °F - 23.0 °F 80% 30.41 in 8.0 mi Calm Calm - N/A   Clear
3:15 AM 28.4 °F - 23.0 °F 80% 30.40 in 9.0 mi Calm Calm - N/A   Clear
3:35 AM 28.4 °F - 23.0 °F 80% 30.41 in 8.0 mi Calm Calm - N/A   Clear
4:15 AM 28.4 °F - 23.0 °F 80% 30.38 in 9.0 mi Calm Calm - N/A   Clear
4:35 AM 28.4 °F - 23.0 °F 80% 30.39 in 10.0 mi North - - N/A   Clear
4:55 AM 28.4 °F - 23.0 °F 80% 30.40 in 9.0 mi Calm Calm - N/A   Clear
5:15 AM 28.4 °F - 23.0 °F 80% 30.41 in 9.0 mi North - - N/A   Clear
5:35 AM 28.4 °F - 23.0 °F 80% 30.37 in 9.0 mi Calm Calm - N/A   Clear
6:15 AM 28.4 °F - 23.0 °F 80% 30.38 in 10.0 mi Calm Calm - N/A   Partly Cloudy
6:35 AM 30.2 °F - 24.8 °F 80% 30.40 in 10.0 mi Calm Calm - N/A   Mostly Cloudy
6:55 AM 30.2 °F - 26.6 °F 86% 30.41 in 10.0 mi Calm Calm - N/A   Mostly Cloudy
7:15 AM 30.2 °F - 24.8 °F 80% 30.42 in 8.0 mi Calm Calm - N/A   Partly Cloudy
7:35 AM 30.2 °F - 26.6 °F 86% 30.44 in 8.0 mi Calm Calm - N/A   Mostly Cloudy
8:15 AM 32.0 °F - 28.4 °F 87% 30.45 in 9.0 mi Calm Calm - N/A   Overcast
8:35 AM 33.8 °F - 30.2 °F 87% 30.45 in 9.0 mi Calm Calm - N/A   Mostly Cloudy
9:15 AM 35.6 °F - 32.0 °F 87% 30.44 in 9.0 mi Calm Calm - N/A   Partly Cloudy
9:35 AM 37.4 °F - 32.0 °F 81% 30.44 in 8.0 mi Calm Calm - N/A   Light Drizzle
9:55 AM 39.2 °F - 32.0 °F 75% 30.44 in 7.0 mi Calm Calm - N/A   Light Drizzle
10:15 AM 41.0 °F - 33.8 °F 76% 30.44 in 9.0 mi Calm Calm - N/A   Partly Cloudy
10:35 AM 42.8 °F 41.1 °F 33.8 °F 70% 30.43 in 9.0 mi West 3.5 mph - N/A   Partly Cloudy
10:55 AM 42.8 °F - 33.8 °F 70% 30.43 in 8.0 mi Calm Calm - N/A   Partly Cloudy
11:15 AM 42.8 °F - 33.8 °F 70% 30.41 in 8.0 mi Calm Calm - N/A   Drizzle
11:35 AM 42.8 °F - 32.0 °F 66% 30.39 in 9.0 mi Calm Calm - N/A   Partly Cloudy
11:55 AM 42.8 °F - 33.8 °F 70% 30.37 in 5.0 mi Calm Calm - N/A   Haze
12:15 PM 44.6 °F - 35.6 °F 71% 30.34 in 9.0 mi Calm Calm - N/A   Partly Cloudy
12:35 PM 46.4 °F 44.3 °F 35.6 °F 66% 30.34 in 9.0 mi SSW 4.6 mph - N/A   Mostly Cloudy
12:55 PM 46.4 °F 43.5 °F 35.6 °F 66% 30.34 in 10.0 mi SSW 5.8 mph - N/A   Scattered Clouds
1:15 PM 44.6 °F 41.4 °F 35.6 °F 71% 30.33 in 8.0 mi SSW 5.8 mph - N/A   Mostly Cloudy
1:35 PM 44.6 °F 40.7 °F 35.6 °F 71% 30.33 in 10.0 mi South 6.9 mph - N/A   Overcast
1:55 PM 44.6 °F 41.4 °F 35.6 °F 71% 30.31 in 10.0 mi South 5.8 mph - N/A   Mostly Cloudy
2:15 PM 44.6 °F 42.2 °F 33.8 °F 66% 30.32 in 8.0 mi SSW 4.6 mph - N/A   Light Drizzle
2:35 PM 44.6 °F 41.4 °F 35.6 °F 71% 30.32 in 7.0 mi South 5.8 mph - N/A Rain Light Rain
2:55 PM 42.8 °F 38.6 °F 33.8 °F 70% 30.32 in 5.0 mi South 6.9 mph - N/A Rain Light Rain
3:15 PM 41.0 °F 38.0 °F 33.8 °F 76% 30.33 in 3.0 mi South 4.6 mph - N/A Rain Light Rain
3:35 PM 41.0 °F - 33.8 °F 76% 30.33 in 3.0 mi Calm Calm - 0.01 in Rain Light Rain
3:55 PM 41.0 °F - 35.6 °F 81% 30.33 in 2.5 mi Calm Calm - 0.02 in Rain Light Rain
4:15 PM 41.0 °F - 35.6 °F 81% 30.35 in 3.0 mi Calm Calm - N/A Rain Light Rain
4:35 PM 41.0 °F - 35.6 °F 81% 30.34 in 4.0 mi Calm Calm - N/A   Light Drizzle
5:15 PM 39.2 °F - 35.6 °F 87% 30.34 in 5.0 mi Calm Calm - N/A   Light Drizzle
5:35 PM 39.2 °F - 35.6 °F 87% 30.35 in 7.0 mi Calm Calm - N/A   Overcast
5:55 PM 39.2 °F 37.0 °F 35.6 °F 87% 30.35 in 8.0 mi South 3.5 mph - N/A   Overcast
6:15 PM 39.2 °F - 35.6 °F 87% 30.35 in 7.0 mi Calm Calm - N/A   Light Drizzle
6:35 PM 39.2 °F - 35.6 °F 87% 30.35 in 8.0 mi Calm Calm - N/A   Overcast
6:55 PM 39.2 °F - 35.6 °F 87% 30.34 in 5.0 mi Calm Calm - N/A   Overcast
7:15 PM 39.2 °F - 35.6 °F 87% 30.34 in 6.0 mi Calm Calm - N/A   Overcast
7:35 PM 39.2 °F - 35.6 °F 87% 30.34 in 6.0 mi Calm Calm - N/A   Overcast
7:55 PM 39.2 °F - 35.6 °F 87% 30.34 in 7.0 mi Calm Calm - N/A   Overcast
8:15 PM 39.2 °F 37.0 °F 35.6 °F 87% 30.33 in 7.0 mi SSE 3.5 mph - N/A   Overcast
8:55 PM 39.2 °F - 35.6 °F 87% 30.33 in 5.0 mi Calm Calm - N/A   Overcast
9:15 PM 39.2 °F 35.9 °F 37.4 °F 93% 30.33 in 5.0 mi South 4.6 mph - N/A   Overcast
9:35 PM 39.2 °F - 37.4 °F 93% 30.31 in 5.0 mi Calm Calm - N/A   Overcast
9:55 PM 39.2 °F - 37.4 °F 93% 30.32 in 5.0 mi North - - N/A   Overcast
10:15 PM 39.2 °F 37.0 °F 37.4 °F 93% 30.32 in 5.0 mi South 3.5 mph - N/A   Overcast
10:35 PM 39.2 °F 37.0 °F 35.6 °F 87% 30.32 in 5.0 mi South 3.5 mph - N/A   Overcast
11:15 PM 39.2 °F 37.0 °F 35.6 °F 87% 30.31 in 5.0 mi South 3.5 mph - N/A   Overcast
11:35 PM 39.2 °F - 35.6 °F 87% 30.30 in 5.0 mi Calm Calm - N/A   Overcast
11:55 PM 39.2 °F - 35.6 °F 87% 30.30 in 4.0 mi Calm Calm - N/A   Overcast